www.pogodaiklimat.ru

Погода и климат >> Архив погоды >> Саудовская Аравия >> Эль-Джауф


ПОГОДА в Эль-Джауфе

  • Прогноз погоды в Эль-Джауфе
  • Монитор погоды в Эль-Джауфе

АРХИВ ПОГОДЫ в Эль-Джауфе

Время (UTC), дата Ветер
(напр.,м/с)
 
Видим.   Явления Облачность Т
(С)
Тd
(С)
f
(%)
Тe
(С)
Тes
(С)
Комфортность P
(гПа)
Po
(гПа)
Тmin
(С)
Tmax
(С)
R
(мм)
R24
(мм)
S
(см)
12 14.04 Ю 5 10 км 3/0
[Cs]
+33.7 -4.0 9 +30 +36 жарко 1008.4 934.7
15 14.04 З 8 10 км 8/0
[As trans Cs]
+32.7 -7.0 7 +28 +29 жарко 1007.1 933.5
18 14.04 СЗ 3 8000 м пыль 6/0
[As trans]
+28.3 -9.0 8 +25 +25 комфорт 1009.0 935.9 +34.0
21 14.04 СЗ 3 5000 м пыль 3/0
[As trans]
+24.1 -5.0 14 +22 +22 комфорт 1010.0 937.0
00 15.04 штиль 0 6000 м пыль ясно +20.1 -3.0 21 +20 +20 1010.5 937.2
03 15.04 СЗ 2 10 км ясно +17.7 -3.0 24 +18 +18 1013.1 939.0
06 15.04 СЗ 4 10 км 4/0
[Ci fib]
+21.0 -5.0 17 +21 +26 комфорт 1013.9 939.7 +17.7
12 15.04 штиль 0 10 км 4/0
[Ci fib]
+29.5 -10.0 7 +26 +41 жарко 1010.6 936.7
15 15.04 З 3 10 км 10/4 1200 м
[Sc As op]
+28.5 -9.0 8 +25 +25 комфорт 1011.5 937.2
18 15.04 СЗ 3 10 км 9/4 1200 м
[Sc As op]
+26.2 -6.0 11 +23 +23 комфорт 1013.2 939.1 +29.6
21 15.04 СЗ 3 10 км 10/3 1200 м
[Sc As op]
+24.5 -6.0 13 +22 +22 комфорт 1012.8 939.2
00 16.04 штиль 0 10 км 4/0
[As op]
+22.2 +1.0 25 +22 +22 комфорт 1011.3 937.7
03 16.04 В 2 10 км 4/1 1200 м
[Sc diur, vesp As op]
+20.9 -1.0 23 +21 +21 комфорт 1010.5 936.6
06 16.04 В 5 10 км ясно +25.7 -2.0 16 +24 +28 комфорт 1009.1 935.5 +20.3
09 16.04 Ю 10 10 км ясно +33.4 -1.0 11 +30 +31 жарко 1005.3 932.8
12 16.04 ЮЗ 7 10 км 8/8 1200 м
[Sc]
+34.2 -3.0 9 +30 +31 жарко 1002.5 929.8
15 16.04 ЮЗ 8 10 км 5/5 1200 м
[Sc]
+33.4 -2.0 10 +30 +30 жарко 1001.1 928.6
18 16.04 СЗ 11 3400 м пыльный позёмок 4/4 1200 м
[Sc]
+23.9 +7.0 34 +24 +24 комфорт 1005.6 932.5 +34.9
21 16.04 СЗ 5 10 км ясно +20.0 +1.0 28 +20 +20 1007.6 934.6
00 17.04 С 4 10 км ясно +16.9 +2.0 37 +17 +17 1008.1 934.6
03 17.04 штиль 0 10 км ясно +13.2 +2.0 47 +13 +13 1009.8 935.6
06 17.04 штиль 0 10 км ясно +19.4 -2.0 23 +19 +32 опасность
простуды
1011.8 936.9 +13.2
09 17.04 штиль 0 10 км ясно +23.0 -2.0 19 +22 +49 комфорт 1011.0 936.2
12 17.04 Ю 3 10 км ясно +26.2 -2.0 16 +24 +35 комфорт 1008.8 934.2
15 17.04 штиль 0 10 км ясно +26.1 -2.0 16 +24 +25 комфорт 1007.3 932.7
18 17.04 штиль 0 10 км ясно +23.3 -1.0 20 +22 +22 комфорт 1008.4 934.1 +26.7
21 17.04 штиль 0 10 км ясно +21.0 0.0 25 +21 +21 комфорт 1009.4 935.0
00 18.04 С 4 10 км ясно +18.0 +1.0 32 +18 +18 1008.4 934.1
03 18.04 С 5 10 км 3/0
[As op]
+15.7 +3.0 43 +15 +15 1009.3 934.7
06 18.04 С 4 10 км 1/0
[As op]
+19.3 +3.0 34 +20 +25 1010.7 936.0 +15.7
09 18.04 СЗ 4 10 км ясно +24.2 +2.0 23 +23 +38 комфорт 1010.0 935.6
12 18.04 СЗ 6 10 км ясно +26.0 0.0 18 +24 +30 комфорт 1008.9 934.5
15 18.04 З 9 10 км ясно +23.1 0.0 22 +22 +22 комфорт 1010.1 935.0
18 18.04 СЗ 3 10 км ясно +19.5 -2.0 23 +20 +20 1011.4 936.5 +26.0
21 18.04 СЗ 2 10 км ясно +16.8 -2.0 28 +17 +17 1011.3 936.6
00 19.04 С 3 10 км ясно +15.4 -4.0 26 +15 +15 1011.4 936.5
03 19.04 СЗ 3 10 км ясно +12.2 +1.0 46 +11 +11 1013.7 937.7
06 19.04 З 5 10 км ясно +17.8 -2.0 26 +17 +23 1014.2 938.5 +12.2
09 19.04 З 7 10 км ясно +21.7 -1.0 22 +21 +26 комфорт 1013.1 937.7
12 19.04 З 8 10 км ясно +23.0 -1.0 20 +22 +24 комфорт 1011.5 936.2
15 19.04 З 5 10 км ясно +23.0 -2.0 19 +22 +22 комфорт 1010.4 935.1
18 19.04 СЗ 3 10 км ясно +19.6 -2.0 23 +20 +20 1011.6 936.4 +23.5
21 19.04 СЗ 3 10 км ясно +16.5 -2.0 28 +16 +16 1013.5 938.2
00 20.04 СЗ 4 10 км ясно +13.4 -1.0 37 +12 +12 1014.1 938.5
03 20.04 З 2 10 км ясно +10.8 -2.0 41 +10 +10 1014.9 938.7
06 20.04 штиль 0 10 км ясно +14.3 0.0 38 +14 +27 опасность
простуды
1016.4 940.2 +10.8
09 20.04 З 2 10 км ясно +18.2 -2.0 25 +19 +41 опасность
простуды
1015.2 939.1
12 20.04 З 8 10 км ясно +21.5 -5.0 16 +20 +22 1012.8 937.0
15 20.04 СЗ 4 10 км ясно +20.8 -4.0 19 +21 +21 комфорт 1012.7 936.7
18 20.04 В 2 10 км ясно +17.3 -4.0 23 +18 +18 1012.6 936.6 +21.5
21 20.04 ЮВ 2 10 км ясно +14.1 -4.0 28 +14 +14 1012.0 936.2
00 21.04 СЗ 3 10 км ясно +13.5 -3.0 32 +13 +13 1011.2 935.6
03 21.04 СЗ 3 10 км ясно +12.3 +1.0 46 +11 +11 1012.0 935.9
06 21.04 СЗ 7 10 км ясно +15.6 +2.0 40 +14 +17 1012.5 936.5 +12.2

 

Местоположение метеостанции Эль-Джауф (Саудовская Аравия): широта 29.78 долгота 40.10 высота над уровнем моря 689 м.

В архиве по умолчанию представлена погода в Эль-Джауфе за последнюю неделю. Архивные данные за месяц целиком и за предыдущие месяцы, начиная с января 2011 года, Вы можете получить, выбрав интересующий диапазон дат из раскрывающегося списка и нажав кнопку "Ввод!".


*Определитесь, кто Вы:
робот инопланетянин человек

Внимание! Время в таблицах - всемирное. Для получения местного времени необходимо прибавить поправку, которая равна 3 ч.

Смотрите также архив погоды в соседних городах и на ближайших метеорологических станциях:

Погода в Араре (Саудовская Аравия) (159 км)
Погода в Тураифе (Саудовская Аравия) (249 км)
Погода в Хаиле (Саудовская Аравия) (304 км)
Погода в Аль-Нухибе (Ирак) (324 км)
Погода в Гураяте (Саудовская Аравия) (325 км)
Погода в Рафхе (Саудовская Аравия) (327 км)
Погода в Руваишеде (Иордания) (352 км)
Погода в Эр-Рутбе (Ирак) (362 км)
Погода в Табуке (Саудовская Аравия) (374 км)
Погода в Аэропорту Принц Хассан (Иордания) (391 км)

Пояснения к столбцам:

Ветер - указаны скорость ветра в м/с - средняя за 10 мин, порывы в срок и между сроками (в фигурных скобках) и направление, откуда дует ветер: С - северный, СВ - северо-восточный, В - восточный, ЮВ - юго-восточный, Ю - южный, ЮЗ - юго-западный, З - западный, СЗ - северо-западный.
Видимость - горизонтальная дальность видимости в метрах или километрах. При видимости от 1 до 10 км при отсутствии осадков обычно наблюдается дымка, при ухудшении видимости до 1 км и менее - туман. В сухую погоду видимость может ухудшаться дымом, пылью или мглою.
Явления - указаны атмосферные явления, наблюдавшиеся в срок или в последний час перед сроком; фигурными скобками обозначены явления, наблюдавшиеся между сроками (за 1-3 часа до срока); квадратными скобками обозначены град или гололедные отложения с указанием их диаметра в мм.
Облачность - указаны через наклонную черту общая и нижняя облачность в баллах и высота нижней границы облаков в метрах; квадратными скобками обозначены формы облаков: Ci - перистые, Cs - перисто-слоистые, Cc - перисто-кучевые, Ac - высококучевые, As - высокослоистые, Sc - слоисто-кучевые, Ns - слоисто-дождевые, Cu - кучевые, Cb - кучево-дождевые. Подробнее классификацию облаков см. в Атласе облаков (PDF).
T - Температура воздуха - температура, измеренная на высоте 2 м над землей.
Td - Температура точки росы - температура, при понижении до которой содержащийся в воздухе водяной пар достигнет насыщения.
f - Относительная влажность воздуха - влажноcть воздуха, измеренная на высоте 2 м над землей.
Te - Эффективная температура - температура, которую ощущает одетый по сезону человек в тени. Характеристика душности погоды. При расчете учитывается влияние влажности воздуха и скорости ветра на теплоощущения человека.
Tes - Эффективная температура на солнце - температура, которую ощущает человек, с поправкой на солнечный нагрев. Характеристика знойности погоды. Зависит от высоты солнца над горизонтом, облачности и скорости ветра. Ночью, в пасмурную погоду, а также при ветре 12 м/с и более поправка равна нулю.
P - Атмосферное давление - приведенное к уровню моря атмосферное давление.
Po - Атмосферное давление - измеренное на уровне метеостанции атмосферное давление.
Tmin - Минимальная температура - минимум температуры воздуха на высоте 2 м над землей.
Tmax - Максимальная температура - максимум температуры воздуха на высоте 2 м над землей.
R - Количество осадков - Количество выпавших осадков за период времени, мм. При наведении курсора мыши на число - период времени, за который выпало указанное количество осадков.
R24 - Количество осадков - Количество выпавших осадков за 24 часа, мм.
S - Снежный покров - Высота снежного покрова, см. При наведении курсора мыши на число - состояние снежного покрова и степень покрытия местности в баллах.